Tracking 34403 objects as of 12-Jun-2026
HD Live streaming from Space Station
objects crossing your sky now

THORAD AGENA D DEB

Track THORAD AGENA D DEB now!
10-day predictions


NORAD ID: 4743
Int'l Code: 1970-025CS
Perigee: 1,023.1 km
Apogee: 1,074.1 km
Inclination: 99.9 °
Period: 106.0 minutes
Semi major axis: 7419 km
RCS: 0.1102 m2 (medium)
Launch date: April 8, 1970
Source: United States (US)
Launch site: AIR FORCE WESTERN TEST RANGE (AFWTR)

Note: This is SATELLITE DEBRIS
Your satellite tracking list
Your tracking list is empty




NASA's NSSDC Master Catalog

Two Line Element Set (TLE):
1 04743U 70025CS  26163.17044803  .00000204  00000-0  34234-3 0  9992
2 04743  99.9014 242.4634 0034387 325.5469  88.7887 13.58408700772374
Source of the keplerian elements: AFSPC